| time (UTC) | temp F | wind direction | speed MPH | gust MPH | rain 1hr in | rain 24hr in | rain mn in | humidity % | barometer mb |
| 20260510093107 | 51 | 82 | 0.0 | 0.0 | 0.00 | 0.00 | 0.00 | 95 | 1014.6 |
| 20260510092604 | 51 | 81 | 0.0 | 0.0 | 0.00 | 0.00 | 0.00 | 95 | 1014.4 |
| 20260510092103 | 51 | 72 | 0.0 | 0.0 | 0.00 | 0.00 | 0.00 | 95 | 1014.4 |
| 20260510091600 | 51 | 84 | 0.0 | 0.0 | 0.00 | 0.00 | 0.00 | 95 | 1014.1 |
| 20260510091056 | 51 | 89 | 0.0 | 1.0 | 0.00 | 0.00 | 0.00 | 95 | 1014.1 |
| 20260510090554 | 51 | 81 | 0.0 | 0.0 | 0.00 | 0.00 | 0.00 | 94 | 1014.2 |
| 20260510090049 | 51 | 77 | 0.0 | 0.0 | 0.00 | 0.00 | 0.00 | 95 | 1014.4 |
| 20260510085544 | 51 | 74 | 0.0 | 0.0 | 0.00 | 0.00 | 0.00 | 94 | 1014.3 |
| 20260510085040 | 51 | 83 | 0.0 | 0.0 | 0.00 | 0.00 | 0.00 | 95 | 1014.5 |
| 20260510084537 | 51 | 74 | 0.0 | 1.0 | 0.00 | 0.00 | 0.00 | 94 | 1014.6 |
| 20260510084034 | 51 | 75 | 0.0 | 0.0 | 0.00 | 0.00 | 0.00 | 94 | 1014.5 |
| 20260510083530 | 51 | 44 | 0.0 | 1.0 | 0.00 | 0.00 | 0.00 | 94 | 1014.4 |
| 20260510083027 | 51 | 73 | 0.0 | 3.0 | 0.00 | 0.00 | 0.00 | 94 | 1014.4 |
| 20260510082524 | 51 | 77 | 0.0 | 1.0 | 0.00 | 0.00 | 0.00 | 94 | 1014.5 |
| 20260510082019 | 51 | 33 | 0.0 | 3.0 | 0.00 | 0.00 | 0.00 | 94 | 1014.8 |
| 20260510081514 | 51 | 77 | 0.0 | 1.0 | 0.00 | 0.00 | 0.00 | 94 | 1014.4 |
| 20260510081010 | 51 | 29 | 2.0 | 2.0 | 0.00 | 0.00 | 0.00 | 94 | 1014.6 |
| 20260510080509 | 50 | 67 | 0.0 | 3.0 | 0.00 | 0.00 | 0.00 | 94 | 1014.5 |
| 20260510080006 | 50 | 82 | 0.0 | 2.0 | 0.00 | 0.00 | 0.00 | 94 | 1014.2 |
| 20260510075504 | 50 | 71 | 0.0 | 0.0 | 0.00 | 0.00 | 0.00 | 94 | 1014.2 |
| 20260510075000 | 50 | 75 | 0.0 | 0.0 | 0.00 | 0.00 | 0.00 | 94 | 1013.8 |
| 20260510074458 | 50 | 75 | 0.0 | 0.0 | 0.00 | 0.00 | 0.00 | 94 | 1013.8 |
| 20260510073953 | 50 | 75 | 0.0 | 0.0 | 0.00 | 0.00 | 0.00 | 94 | 1013.8 |
| 20260510073449 | 50 | 74 | 0.0 | 0.0 | 0.00 | 0.00 | 0.00 | 94 | 1013.9 |
| 20260510072946 | 50 | 76 | 0.0 | 0.0 | 0.00 | 0.00 | 0.00 | 94 | 1014.0 |
| 20260510072443 | 50 | 69 | 0.0 | 0.0 | 0.00 | 0.00 | 0.00 | 94 | 1013.8 |
| 20260510071938 | 50 | 72 | 0.0 | 1.0 | 0.00 | 0.00 | 0.00 | 94 | 1013.8 |
| 20260510071435 | 50 | 74 | 0.0 | 0.0 | 0.00 | 0.00 | 0.00 | 94 | 1013.7 |
| 20260510070933 | 50 | 77 | 0.0 | 1.0 | 0.00 | 0.00 | 0.00 | 94 | 1013.8 |
| 20260510070430 | 50 | 67 | 0.0 | 1.0 | 0.00 | 0.00 | 0.00 | 94 | 1013.9 |
| 20260510065926 | 50 | 76 | 0.0 | 2.0 | 0.00 | 0.00 | 0.00 | 94 | 1013.8 |
| 20260510065422 | 50 | 57 | 0.0 | 3.0 | 0.00 | 0.00 | 0.00 | 94 | 1014.0 |
| 20260510064919 | 49 | 12 | 2.0 | 5.0 | 0.00 | 0.00 | 0.00 | 94 | 1013.9 |
| 20260510064417 | 49 | 70 | 1.0 | 6.0 | 0.00 | 0.00 | 0.00 | 94 | 1013.5 |
| 20260510063913 | 49 | 71 | 0.0 | 2.0 | 0.00 | 0.00 | 0.00 | 94 | 1013.6 |
| 20260510063409 | 50 | 80 | 0.0 | 2.0 | 0.00 | 0.00 | 0.00 | 94 | 1013.5 |
| 20260510062907 | 50 | 65 | 0.0 | 1.0 | 0.00 | 0.00 | 0.00 | 94 | 1013.6 |
| 20260510062402 | 50 | 74 | 0.0 | 0.0 | 0.00 | 0.00 | 0.00 | 94 | 1013.4 |
| 20260510061858 | 50 | 71 | 0.0 | 0.0 | 0.00 | 0.00 | 0.00 | 94 | 1013.4 |
| 20260510061354 | 50 | 76 | 0.0 | 0.0 | 0.00 | 0.00 | 0.00 | 94 | 1013.2 |
| 20260510060850 | 50 | 77 | 0.0 | 0.0 | 0.00 | 0.00 | 0.00 | 94 | 1013.4 |
| 20260510060347 | 50 | 75 | 0.0 | 0.0 | 0.00 | 0.00 | 0.00 | 94 | 1013.5 |
| 20260510055843 | 50 | 72 | 0.0 | 0.0 | 0.00 | 0.00 | 0.00 | 94 | 1013.5 |
| 20260510055343 | 50 | 57 | 0.0 | 1.0 | 0.00 | 0.00 | 0.00 | 94 | 1013.6 |
| 20260510054837 | 49 | 74 | 0.0 | 0.0 | 0.00 | 0.00 | 0.00 | 94 | 1013.7 |
| 20260510054333 | 49 | 72 | 0.0 | 0.0 | 0.00 | 0.00 | 0.00 | 93 | 1013.5 |
| 20260510053827 | 49 | 74 | 0.0 | 0.0 | 0.00 | 0.00 | 0.00 | 93 | 1013.8 |
| 20260510053323 | 48 | 76 | 0.0 | 0.0 | 0.00 | 0.00 | 0.00 | 93 | 1013.5 |
| 20260510052820 | 48 | 75 | 0.0 | 0.0 | 0.00 | 0.00 | 0.00 | 93 | 1013.7 |
| 20260510052316 | 48 | 75 | 0.0 | 0.0 | 0.00 | 0.00 | 0.00 | 93 | 1013.7 |
| 20260510051812 | 48 | 74 | 0.0 | 0.0 | 0.00 | 0.00 | 0.00 | 93 | 1013.7 |
| 20260510051309 | 48 | 75 | 0.0 | 0.0 | 0.00 | 0.00 | 0.00 | 93 | 1013.8 |
| 20260510050805 | 48 | 75 | 0.0 | 0.0 | 0.00 | 0.00 | 0.00 | 93 | 1013.6 |
| 20260510050257 | 48 | 75 | 0.0 | 0.0 | 0.00 | 0.00 | 0.00 | 93 | 1013.7 |
| 20260510045753 | 48 | 74 | 0.0 | 0.0 | 0.00 | 0.00 | 0.00 | 93 | 1013.7 |
| 20260510045250 | 48 | 73 | 0.0 | 0.0 | 0.00 | 0.00 | 0.00 | 93 | 1013.8 |
| 20260510044748 | 49 | 75 | 0.0 | 0.0 | 0.00 | 0.00 | 0.00 | 93 | 1013.9 |
| 20260510044245 | 49 | 70 | 0.0 | 0.0 | 0.00 | 0.00 | 0.00 | 93 | 1014.1 |
| 20260510043740 | 49 | 70 | 0.0 | 0.0 | 0.00 | 0.00 | 0.00 | 93 | 1013.9 |
| 20260510043237 | 49 | 75 | 0.0 | 0.0 | 0.00 | 0.00 | 0.00 | 92 | 1014.0 |
| 20260510042734 | 49 | 76 | 0.0 | 0.0 | 0.00 | 0.00 | 0.00 | 92 | 1014.0 |
| 20260510042230 | 49 | 76 | 0.0 | 0.0 | 0.00 | 0.00 | 0.00 | 92 | 1014.0 |
| 20260510041727 | 49 | 76 | 0.0 | 0.0 | 0.00 | 0.00 | 0.00 | 92 | 1014.1 |
| 20260510041224 | 50 | 76 | 0.0 | 0.0 | 0.00 | 0.00 | 0.00 | 92 | 1014.1 |
| 20260510040721 | 50 | 78 | 0.0 | 0.0 | 0.00 | 0.00 | 0.00 | 92 | 1014.2 |
| 20260510040218 | 49 | 75 | 0.0 | 0.0 | 0.00 | 0.00 | 0.00 | 92 | 1014.1 |
| 20260510035713 | 50 | 76 | 0.0 | 0.0 | 0.00 | 0.22 | 0.22 | 92 | 1014.2 |
| 20260510035210 | 50 | 78 | 0.0 | 0.0 | 0.00 | 0.22 | 0.22 | 92 | 1014.1 |
| 20260510034705 | 50 | 75 | 0.0 | 0.0 | 0.00 | 0.22 | 0.22 | 92 | 1014.1 |
| 20260510034203 | 50 | 76 | 0.0 | 0.0 | 0.00 | 0.22 | 0.22 | 91 | 1014.2 |
| 20260510033659 | 50 | 75 | 0.0 | 0.0 | 0.00 | 0.22 | 0.22 | 91 | 1014.0 |
| 20260510033157 | 50 | 77 | 0.0 | 0.0 | 0.00 | 0.22 | 0.22 | 91 | 1014.0 |
| 20260510032653 | 50 | 68 | 0.0 | 0.0 | 0.00 | 0.22 | 0.22 | 91 | 1013.9 |
| 20260510032149 | 51 | 75 | 0.0 | 0.0 | 0.00 | 0.22 | 0.22 | 91 | 1013.9 |
| 20260510031643 | 51 | 75 | 0.0 | 0.0 | 0.00 | 0.22 | 0.22 | 91 | 1014.0 |
| 20260510031140 | 51 | 68 | 0.0 | 0.0 | 0.00 | 0.22 | 0.22 | 91 | 1013.6 |
| 20260510030635 | 52 | 74 | 0.0 | 0.0 | 0.00 | 0.22 | 0.22 | 91 | 1013.5 |
| 20260510030133 | 52 | 54 | 0.0 | 0.0 | 0.00 | 0.22 | 0.22 | 91 | 1013.6 |
| 20260510025630 | 52 | 58 | 0.0 | 0.0 | 0.00 | 0.22 | 0.22 | 91 | 1013.7 |
| 20260510025127 | 52 | 69 | 0.0 | 0.0 | 0.00 | 0.22 | 0.22 | 90 | 1013.6 |
| 20260510024623 | 52 | 53 | 0.0 | 1.0 | 0.00 | 0.22 | 0.22 | 90 | 1013.6 |
| 20260510024120 | 52 | 67 | 0.0 | 1.0 | 0.00 | 0.22 | 0.22 | 90 | 1013.5 |
| 20260510023616 | 52 | 74 | 0.0 | 0.0 | 0.00 | 0.22 | 0.22 | 89 | 1013.7 |
| 20260510023114 | 52 | 71 | 0.0 | 0.0 | 0.00 | 0.22 | 0.22 | 89 | 1013.6 |
| 20260510022614 | 52 | 74 | 0.0 | 0.0 | 0.00 | 0.22 | 0.22 | 89 | 1013.6 |
| 20260510022108 | 53 | 71 | 0.0 | 0.0 | 0.00 | 0.22 | 0.22 | 89 | 1013.5 |
| 20260510021604 | 53 | 60 | 0.0 | 0.0 | 0.00 | 0.22 | 0.22 | 89 | 1013.5 |
| 20260510021102 | 53 | 64 | 0.0 | 0.0 | 0.00 | 0.22 | 0.22 | 88 | 1013.6 |
| 20260510020555 | 53 | 65 | 0.0 | 0.0 | 0.00 | 0.22 | 0.22 | 88 | 1013.6 |
| 20260510020052 | 53 | 67 | 0.0 | 0.0 | 0.00 | 0.22 | 0.22 | 88 | 1013.5 |
| 20260510015548 | 53 | 63 | 0.0 | 0.0 | 0.00 | 0.22 | 0.22 | 87 | 1013.5 |
| 20260510015044 | 53 | 67 | 0.0 | 0.0 | 0.00 | 0.22 | 0.22 | 87 | 1013.4 |
| 20260510014540 | 53 | 74 | 0.0 | 0.0 | 0.00 | 0.22 | 0.22 | 87 | 1013.2 |
| 20260510014038 | 54 | 66 | 0.0 | 0.0 | 0.00 | 0.22 | 0.22 | 86 | 1013.4 |
| 20260510013532 | 53 | 64 | 0.0 | 0.0 | 0.00 | 0.22 | 0.22 | 86 | 1013.4 |
| 20260510013028 | 53 | 74 | 0.0 | 0.0 | 0.00 | 0.22 | 0.22 | 86 | 1013.4 |
| 20260510012522 | 53 | 61 | 0.0 | 0.0 | 0.00 | 0.22 | 0.22 | 86 | 1013.4 |
| 20260510012019 | 54 | 70 | 0.0 | 0.0 | 0.00 | 0.22 | 0.22 | 85 | 1013.4 |
| 20260510011518 | 54 | 90 | 0.0 | 0.0 | 0.00 | 0.22 | 0.22 | 85 | 1013.2 |
| 20260510011014 | 54 | 62 | 0.0 | 0.0 | 0.00 | 0.22 | 0.22 | 85 | 1013.3 |
| 20260510010512 | 54 | 67 | 0.0 | 0.0 | 0.00 | 0.22 | 0.22 | 85 | 1013.4 |
| 20260510010008 | 54 | 82 | 0.0 | 0.0 | 0.00 | 0.22 | 0.22 | 84 | 1013.2 |
| 20260510005504 | 54 | 60 | 0.0 | 1.0 | 0.00 | 0.22 | 0.22 | 84 | 1013.1 |
| 20260510005002 | 54 | 75 | 0.0 | 0.0 | 0.00 | 0.22 | 0.22 | 84 | 1013.2 |
| 20260510004459 | 55 | 66 | 0.0 | 2.0 | 0.00 | 0.22 | 0.22 | 84 | 1012.9 |
| 20260510003957 | 55 | 58 | 1.0 | 1.0 | 0.00 | 0.22 | 0.22 | 84 | 1013.1 |
| 20260510003453 | 55 | 73 | 0.0 | 0.0 | 0.00 | 0.22 | 0.22 | 83 | 1013.0 |
| 20260510002949 | 55 | 72 | 0.0 | 1.0 | 0.00 | 0.22 | 0.22 | 83 | 1012.9 |
| 20260510002445 | 55 | 75 | 0.0 | 0.0 | 0.00 | 0.22 | 0.22 | 82 | 1012.9 |
| 20260510001942 | 55 | 73 | 0.0 | 1.0 | 0.00 | 0.22 | 0.22 | 82 | 1013.1 |
| 20260510001439 | 55 | 75 | 0.0 | 0.0 | 0.00 | 0.22 | 0.22 | 82 | 1013.0 |
| 20260510000937 | 55 | 82 | 0.0 | 0.0 | 0.00 | 0.22 | 0.22 | 81 | 1012.9 |
| 20260510000433 | 56 | 78 | 0.0 | 0.0 | 0.00 | 0.22 | 0.22 | 81 | 1012.8 |
| 20260509235929 | 56 | 80 | 0.0 | 0.0 | 0.00 | 0.22 | 0.22 | 81 | 1012.7 |
| 20260509235426 | 57 | 74 | 0.0 | 1.0 | 0.00 | 0.22 | 0.22 | 81 | 1012.8 |
| 20260509234922 | 57 | 78 | 0.0 | 0.0 | 0.00 | 0.22 | 0.22 | 81 | 1012.9 |
| 20260509234419 | 57 | 115 | 1.0 | 3.0 | 0.00 | 0.22 | 0.22 | 80 | 1012.7 |
| 20260509233917 | 57 | 76 | 0.0 | 1.0 | 0.00 | 0.22 | 0.22 | 80 | 1012.8 |
| 20260509233415 | 57 | 76 | 0.0 | 0.0 | 0.00 | 0.22 | 0.22 | 80 | 1012.9 |
| 20260509232910 | 57 | 84 | 0.0 | 1.0 | 0.00 | 0.22 | 0.22 | 80 | 1012.9 |
| 20260509232409 | 57 | 88 | 0.0 | 1.0 | 0.00 | 0.22 | 0.22 | 80 | 1012.9 |
| 20260509231904 | 57 | 84 | 0.0 | 2.0 | 0.00 | 0.22 | 0.22 | 80 | 1013.1 |
| 20260509231401 | 57 | 83 | 0.0 | 2.0 | 0.00 | 0.22 | 0.22 | 80 | 1013.0 |
| 20260509230859 | 57 | 81 | 1.0 | 2.0 | 0.00 | 0.22 | 0.22 | 81 | 1012.9 |
| 20260509230355 | 57 | 81 | 1.0 | 2.0 | 0.00 | 0.22 | 0.22 | 81 | 1012.9 |
| 20260509225851 | 57 | 97 | 0.0 | 3.0 | 0.00 | 0.22 | 0.22 | 82 | 1013.0 |
| 20260509225348 | 57 | 89 | 1.0 | 2.0 | 0.00 | 0.22 | 0.22 | 84 | 1013.1 |
| 20260509224844 | 57 | 142 | 1.0 | 2.0 | 0.00 | 0.22 | 0.22 | 86 | 1012.9 |
| 20260509224340 | 57 | 143 | 3.0 | 6.0 | 0.00 | 0.22 | 0.22 | 88 | 1013.0 |
| 20260509223837 | 57 | 81 | 0.0 | 2.0 | 0.00 | 0.22 | 0.22 | 89 | 1012.9 |
| 20260509223334 | 57 | 113 | 2.0 | 6.0 | 0.00 | 0.22 | 0.22 | 90 | 1012.9 |
| 20260509222831 | 57 | 112 | 1.0 | 2.0 | 0.00 | 0.22 | 0.22 | 90 | 1013.0 |
| 20260509222326 | 57 | 96 | 2.0 | 3.0 | 0.00 | 0.22 | 0.22 | 91 | 1012.9 |
| 20260509221821 | 57 | 80 | 1.0 | 2.0 | 0.00 | 0.22 | 0.22 | 91 | 1012.9 |
| 20260509221319 | 57 | 76 | 2.0 | 5.0 | 0.00 | 0.22 | 0.22 | 91 | 1012.9 |
| 20260509220819 | 57 | 131 | 4.0 | 5.0 | 0.00 | 0.22 | 0.22 | 91 | 1012.7 |
| 20260509220316 | 57 | 105 | 3.0 | 6.0 | 0.00 | 0.22 | 0.22 | 91 | 1012.8 |
| 20260509215811 | 57 | 134 | 1.0 | 2.0 | 0.00 | 0.22 | 0.22 | 91 | 1012.8 |
| 20260509215309 | 57 | 84 | 2.0 | 3.0 | 0.00 | 0.22 | 0.22 | 91 | 1012.9 |
| 20260509214805 | 57 | 105 | 1.0 | 2.0 | 0.00 | 0.22 | 0.22 | 91 | 1012.6 |
| 20260509214302 | 57 | 114 | 2.0 | 3.0 | 0.00 | 0.22 | 0.22 | 91 | 1012.9 |
| 20260509213759 | 57 | 76 | 1.0 | 2.0 | 0.00 | 0.22 | 0.22 | 91 | 1012.9 |
| 20260509213255 | 57 | 99 | 0.0 | 2.0 | 0.00 | 0.22 | 0.22 | 91 | 1012.9 |
| 20260509212753 | 57 | 78 | 0.0 | 2.0 | 0.00 | 0.22 | 0.22 | 91 | 1012.9 |
| 20260509212250 | 57 | 70 | 0.0 | 0.0 | 0.00 | 0.22 | 0.22 | 91 | 1012.9 |
| 20260509211745 | 57 | 74 | 0.0 | 1.0 | 0.00 | 0.22 | 0.22 | 91 | 1013.0 |
| 20260509211242 | 56 | 71 | 0.0 | 0.0 | 0.00 | 0.22 | 0.22 | 91 | 1013.0 |
| 20260509210738 | 57 | 79 | 0.0 | 1.0 | 0.00 | 0.22 | 0.22 | 91 | 1013.0 |
| 20260509210236 | 57 | 72 | 0.0 | 2.0 | 0.00 | 0.22 | 0.22 | 91 | 1012.9 |
| 20260509205735 | 58 | 71 | 0.0 | 1.0 | 0.00 | 0.22 | 0.22 | 91 | 1013.0 |
| 20260509205230 | 58 | 19 | 1.0 | 1.0 | 0.00 | 0.22 | 0.22 | 91 | 1012.9 |
| 20260509204726 | 57 | 86 | 1.0 | 2.0 | 0.00 | 0.22 | 0.22 | 91 | 1013.0 |
| 20260509204223 | 56 | 57 | 0.0 | 2.0 | 0.00 | 0.22 | 0.22 | 91 | 1013.0 |
| 20260509203719 | 58 | 55 | 2.0 | 2.0 | 0.00 | 0.22 | 0.22 | 91 | 1013.0 |
| 20260509203217 | 57 | 77 | 0.0 | 2.0 | 0.00 | 0.22 | 0.22 | 91 | 1013.1 |
| 20260509202713 | 56 | 73 | 0.0 | 1.0 | 0.00 | 0.22 | 0.22 | 91 | 1012.9 |
| 20260509202208 | 56 | 10 | 1.0 | 3.0 | 0.00 | 0.22 | 0.22 | 91 | 1012.8 |
| 20260509201703 | 56 | 27 | 2.0 | 2.0 | 0.00 | 0.22 | 0.22 | 91 | 1012.9 |
| 20260509201200 | 56 | 52 | 0.0 | 0.0 | 0.17 | 0.22 | 0.22 | 91 | 1012.8 |
| 20260509200656 | 55 | 72 | 0.0 | 1.0 | 0.17 | 0.22 | 0.22 | 90 | 1013.1 |
| 20260509200152 | 55 | 64 | 0.0 | 1.0 | 0.00 | 0.19 | 0.19 | 90 | 1013.2 |
| 20260509195648 | 55 | 63 | 1.0 | 3.0 | 0.00 | 0.19 | 0.19 | 90 | 1012.9 |
| 20260509195143 | 55 | 15 | 2.0 | 2.0 | 0.00 | 0.19 | 0.19 | 90 | 1013.0 |
| 20260509194642 | 55 | 89 | 0.0 | 1.0 | 0.00 | 0.19 | 0.19 | 90 | 1013.3 |
| 20260509194140 | 55 | 43 | 1.0 | 2.0 | 0.07 | 0.19 | 0.19 | 90 | 1013.4 |
| 20260509193635 | 55 | 30 | 1.0 | 2.0 | 0.07 | 0.19 | 0.19 | 89 | 1013.4 |
| 20260509193126 | 55 | 52 | 2.0 | 3.0 | 0.00 | 0.18 | 0.18 | 89 | 1013.6 |
| 20260509192623 | 55 | 64 | 0.0 | 2.0 | 0.00 | 0.18 | 0.18 | 89 | 1013.5 |
| 20260509192118 | 55 | 75 | 0.0 | 5.0 | 0.00 | 0.18 | 0.18 | 89 | 1013.7 |
| 20260509191612 | 55 | 88 | 0.0 | 2.0 | 0.07 | 0.18 | 0.18 | 89 | 1013.7 |
| 20260509191109 | 55 | 69 | 1.0 | 2.0 | 0.12 | 0.17 | 0.17 | 88 | 1013.8 |
| 20260509190606 | 55 | 43 | 1.0 | 2.0 | 0.07 | 0.16 | 0.16 | 88 | 1014.1 |
| 20260509190103 | 55 | 51 | 2.0 | 3.0 | 0.05 | 0.15 | 0.15 | 88 | 1014.0 |
| 20260509185601 | 55 | 34 | 2.0 | 3.0 | 0.05 | 0.15 | 0.15 | 88 | 1014.0 |
| 20260509185056 | 55 | 55 | 2.0 | 6.0 | 0.00 | 0.14 | 0.14 | 88 | 1014.2 |
| 20260509184555 | 56 | 55 | 1.0 | 2.0 | 0.00 | 0.14 | 0.14 | 88 | 1014.1 |
| 20260509184051 | 56 | 65 | 1.0 | 2.0 | 0.00 | 0.14 | 0.14 | 88 | 1014.2 |
| 20260509183547 | 56 | 63 | 1.0 | 2.0 | 0.00 | 0.14 | 0.14 | 88 | 1014.2 |
| 20260509183043 | 55 | 77 | 0.0 | 1.0 | 0.00 | 0.14 | 0.14 | 87 | 1014.3 |
| 20260509182539 | 55 | 69 | 1.0 | 3.0 | 0.07 | 0.14 | 0.14 | 87 | 1014.3 |
| 20260509182036 | 55 | 82 | 0.0 | 3.0 | 0.12 | 0.14 | 0.14 | 87 | 1014.2 |
| 20260509181535 | 55 | 27 | 3.0 | 3.0 | 0.05 | 0.13 | 0.13 | 87 | 1014.4 |
| 20260509181031 | 55 | 56 | 0.0 | 0.0 | 0.07 | 0.12 | 0.12 | 86 | 1014.4 |
| 20260509180527 | 55 | 350 | 2.0 | 2.0 | 0.07 | 0.12 | 0.12 | 86 | 1014.4 |
| 20260509180025 | 55 | 72 | 0.0 | 2.0 | 0.00 | 0.11 | 0.11 | 86 | 1014.5 |
| 20260509175520 | 55 | 90 | 0.0 | 2.0 | 0.00 | 0.11 | 0.11 | 86 | 1014.5 |
| 20260509175017 | 56 | 326 | 2.0 | 3.0 | 0.05 | 0.11 | 0.11 | 85 | 1014.5 |
| 20260509174514 | 56 | 94 | 1.0 | 1.0 | 0.00 | 0.10 | 0.10 | 85 | 1014.6 |
| 20260509174009 | 56 | 104 | 1.0 | 1.0 | 0.07 | 0.10 | 0.10 | 85 | 1014.5 |
| 20260509173503 | 56 | 91 | 1.0 | 2.0 | 0.05 | 0.09 | 0.09 | 85 | 1014.6 |
| 20260509173000 | 56 | 88 | 1.0 | 3.0 | 0.07 | 0.08 | 0.08 | 84 | 1014.4 |
| 20260509172457 | 56 | 68 | 0.0 | 1.0 | 0.00 | 0.07 | 0.07 | 84 | 1014.2 |
| 20260509171952 | 56 | 76 | 1.0 | 5.0 | 0.05 | 0.07 | 0.07 | 84 | 1014.2 |
| 20260509171449 | 56 | 305 | 2.0 | 3.0 | 0.00 | 0.06 | 0.06 | 83 | 1014.1 |
| 20260509170945 | 56 | 78 | 0.0 | 0.0 | 0.00 | 0.06 | 0.06 | 83 | 1014.1 |
| 20260509170441 | 56 | 75 | 0.0 | 1.0 | 0.00 | 0.06 | 0.06 | 83 | 1014.1 |
| 20260509165936 | 56 | 72 | 1.0 | 2.0 | 0.00 | 0.06 | 0.06 | 82 | 1014.0 |
| 20260509165431 | 56 | 59 | 1.0 | 2.0 | 0.07 | 0.06 | 0.06 | 82 | 1014.3 |
| 20260509164926 | 57 | 60 | 1.0 | 1.0 | 0.07 | 0.06 | 0.06 | 82 | 1014.2 |
| 20260509164423 | 56 | 41 | 1.0 | 2.0 | 0.00 | 0.05 | 0.05 | 81 | 1014.3 |
| 20260509163919 | 56 | 71 | 0.0 | 1.0 | 0.07 | 0.05 | 0.05 | 81 | 1014.2 |
| 20260509163416 | 57 | 79 | 1.0 | 2.0 | 0.07 | 0.05 | 0.05 | 80 | 1014.2 |
| 20260509162915 | 56 | 30 | 1.0 | 2.0 | 0.05 | 0.04 | 0.04 | 79 | 1014.4 |
| 20260509162414 | 57 | 52 | 1.0 | 1.0 | 0.07 | 0.03 | 0.03 | 79 | 1014.5 |
| 20260509161909 | 58 | 57 | 1.0 | 2.0 | 0.12 | 0.03 | 0.03 | 77 | 1014.5 |
| 20260509161406 | 58 | 53 | 2.0 | 2.0 | 0.05 | 0.02 | 0.02 | 75 | 1014.4 |
| 20260509160902 | 59 | 105 | 1.0 | 7.0 | 0.07 | 0.01 | 0.01 | 73 | 1014.8 |
| 20260509160357 | 59 | 148 | 3.0 | 3.0 | 0.00 | 0.00 | 0.00 | 72 | 1014.9 |
| 20260509155853 | 59 | 80 | 0.0 | 1.0 | 0.00 | 0.00 | 0.00 | 72 | 1015.0 |
| 20260509155350 | 60 | 163 | 1.0 | 3.0 | 0.00 | 0.00 | 0.00 | 71 | 1015.0 |
| 20260509154846 | 60 | 278 | 3.0 | 3.0 | 0.00 | 0.00 | 0.00 | 70 | 1014.9 |
| 20260509154343 | 60 | 314 | 2.0 | 3.0 | 0.00 | 0.00 | 0.00 | 70 | 1014.8 |
| 20260509153839 | 60 | 86 | 3.0 | 7.0 | 0.00 | 0.00 | 0.00 | 68 | 1015.0 |
| 20260509153337 | 61 | 328 | 3.0 | 3.0 | 0.00 | 0.00 | 0.00 | 68 | 1015.0 |
| 20260509152833 | 61 | 172 | 3.0 | 5.0 | 0.00 | 0.00 | 0.00 | 67 | 1015.0 |
| 20260509152329 | 62 | 272 | 3.0 | 6.0 | 0.00 | 0.00 | 0.00 | 66 | 1015.0 |
| 20260509151827 | 62 | 67 | 4.0 | 6.0 | 0.00 | 0.00 | 0.00 | 65 | 1014.7 |
| 20260509151323 | 62 | 215 | 5.0 | 7.0 | 0.00 | 0.00 | 0.00 | 65 | 1014.8 |
| 20260509150822 | 62 | 263 | 3.0 | 5.0 | 0.00 | 0.00 | 0.00 | 65 | 1015.0 |
| 20260509150318 | 62 | 102 | 3.0 | 6.0 | 0.00 | 0.00 | 0.00 | 65 | 1014.8 |
| 20260509145816 | 62 | 115 | 1.0 | 5.0 | 0.00 | 0.00 | 0.00 | 65 | 1014.8 |
| 20260509145316 | 62 | 124 | 2.0 | 5.0 | 0.00 | 0.00 | 0.00 | 65 | 1014.8 |
| 20260509144812 | 62 | 102 | 2.0 | 5.0 | 0.00 | 0.00 | 0.00 | 65 | 1014.7 |
| 20260509144309 | 62 | 88 | 2.0 | 2.0 | 0.00 | 0.00 | 0.00 | 66 | 1014.7 |
| 20260509143806 | 62 | 209 | 4.0 | 9.0 | 0.00 | 0.00 | 0.00 | 66 | 1014.7 |
| 20260509143304 | 62 | 124 | 2.0 | 2.0 | 0.00 | 0.00 | 0.00 | 66 | 1014.8 |
| 20260509142800 | 61 | 23 | 1.0 | 2.0 | 0.00 | 0.00 | 0.00 | 65 | 1014.6 |
| 20260509142256 | 61 | 105 | 1.0 | 2.0 | 0.00 | 0.00 | 0.00 | 65 | 1014.5 |
| 20260509141751 | 61 | 236 | 4.0 | 5.0 | 0.00 | 0.00 | 0.00 | 65 | 1014.3 |
| 20260509141249 | 61 | 226 | 3.0 | 7.0 | 0.00 | 0.00 | 0.00 | 65 | 1014.4 |
| 20260509140745 | 61 | 99 | 1.0 | 1.0 | 0.00 | 0.00 | 0.00 | 66 | 1014.4 |
| 20260509140243 | 61 | 175 | 1.0 | 2.0 | 0.00 | 0.00 | 0.00 | 66 | 1014.4 |
| 20260509135740 | 61 | 254 | 4.0 | 6.0 | 0.00 | 0.00 | 0.00 | 65 | 1014.4 |
| 20260509135238 | 61 | 180 | 3.0 | 3.0 | 0.00 | 0.00 | 0.00 | 66 | 1014.4 |
| 20260509134734 | 61 | 116 | 0.0 | 1.0 | 0.00 | 0.00 | 0.00 | 67 | 1014.3 |
| 20260509134232 | 61 | 125 | 4.0 | 6.0 | 0.00 | 0.00 | 0.00 | 67 | 1014.4 |
| 20260509133729 | 61 | 100 | 1.0 | 3.0 | 0.00 | 0.00 | 0.00 | 68 | 1014.2 |
| 20260509133226 | 60 | 94 | 1.0 | 3.0 | 0.00 | 0.00 | 0.00 | 68 | 1014.1 |
| 20260509132725 | 60 | 138 | 3.0 | 3.0 | 0.00 | 0.00 | 0.00 | 69 | 1014.4 |
| 20260509132223 | 60 | 92 | 1.0 | 3.0 | 0.00 | 0.00 | 0.00 | 69 | 1014.3 |
| 20260509131719 | 60 | 84 | 1.0 | 2.0 | 0.00 | 0.00 | 0.00 | 70 | 1014.4 |
| 20260509131215 | 59 | 92 | 1.0 | 2.0 | 0.00 | 0.00 | 0.00 | 70 | 1014.4 |
| 20260509130711 | 59 | 104 | 3.0 | 5.0 | 0.00 | 0.00 | 0.00 | 70 | 1014.2 |
| 20260509130207 | 59 | 99 | 1.0 | 2.0 | 0.00 | 0.00 | 0.00 | 70 | 1014.3 |
| 20260509125704 | 59 | 118 | 0.0 | 2.0 | 0.00 | 0.00 | 0.00 | 71 | 1014.4 |
| 20260509125201 | 59 | 112 | 2.0 | 3.0 | 0.00 | 0.00 | 0.00 | 71 | 1014.3 |
| 20260509124657 | 58 | 116 | 1.0 | 2.0 | 0.00 | 0.00 | 0.00 | 72 | 1014.4 |
| 20260509124154 | 58 | 76 | 1.0 | 1.0 | 0.00 | 0.00 | 0.00 | 72 | 1014.5 |
| 20260509123653 | 57 | 93 | 1.0 | 2.0 | 0.00 | 0.00 | 0.00 | 72 | 1014.5 |
| 20260509123149 | 57 | 94 | 1.0 | 3.0 | 0.00 | 0.00 | 0.00 | 72 | 1014.5 |
| 20260509122645 | 57 | 103 | 1.0 | 2.0 | 0.00 | 0.00 | 0.00 | 73 | 1014.6 |
| 20260509122142 | 57 | 85 | 0.0 | 1.0 | 0.00 | 0.00 | 0.00 | 73 | 1014.6 |
| 20260509121638 | 56 | 71 | 0.0 | 1.0 | 0.00 | 0.00 | 0.00 | 73 | 1014.3 |
| 20260509121137 | 56 | 90 | 1.0 | 2.0 | 0.00 | 0.00 | 0.00 | 73 | 1014.3 |
| 20260509120634 | 56 | 82 | 0.0 | 2.0 | 0.00 | 0.00 | 0.00 | 73 | 1014.3 |
| 20260509120132 | 56 | 89 | 1.0 | 2.0 | 0.00 | 0.00 | 0.00 | 72 | 1014.5 |
| 20260509115629 | 55 | 87 | 1.0 | 1.0 | 0.00 | 0.00 | 0.00 | 72 | 1014.5 |
| 20260509115127 | 55 | 91 | 1.0 | 2.0 | 0.00 | 0.00 | 0.00 | 72 | 1014.5 |
| 20260509114625 | 55 | 85 | 0.0 | 1.0 | 0.00 | 0.00 | 0.00 | 72 | 1014.3 |
| 20260509114123 | 55 | 89 | 1.0 | 3.0 | 0.00 | 0.00 | 0.00 | 72 | 1014.4 |
| 20260509113621 | 55 | 96 | 0.0 | 2.0 | 0.00 | 0.00 | 0.00 | 72 | 1014.3 |
| 20260509113118 | 55 | 138 | 2.0 | 3.0 | 0.00 | 0.00 | 0.00 | 72 | 1014.3 |
| 20260509112615 | 55 | 128 | 2.0 | 2.0 | 0.00 | 0.00 | 0.00 | 72 | 1014.3 |
| 20260509112112 | 55 | 112 | 3.0 | 3.0 | 0.00 | 0.00 | 0.00 | 72 | 1014.3 |
| 20260509111609 | 55 | 93 | 1.0 | 1.0 | 0.00 | 0.00 | 0.00 | 71 | 1014.3 |
| 20260509111106 | 55 | 117 | 1.0 | 2.0 | 0.00 | 0.00 | 0.00 | 71 | 1014.4 |
| 20260509110603 | 55 | 96 | 2.0 | 2.0 | 0.00 | 0.00 | 0.00 | 71 | 1014.4 |
| 20260509110100 | 55 | 77 | 0.0 | 0.0 | 0.00 | 0.00 | 0.00 | 71 | 1014.3 |
| 20260509105558 | 55 | 78 | 1.0 | 2.0 | 0.00 | 0.00 | 0.00 | 71 | 1014.3 |
| 20260509105055 | 55 | 80 | 1.0 | 2.0 | 0.00 | 0.00 | 0.00 | 70 | 1014.3 |
| 20260509104552 | 55 | 104 | 2.0 | 2.0 | 0.00 | 0.00 | 0.00 | 70 | 1014.5 |
| 20260509104049 | 55 | 92 | 0.0 | 2.0 | 0.00 | 0.00 | 0.00 | 70 | 1014.5 |
| 20260509103547 | 55 | 83 | 1.0 | 3.0 | 0.00 | 0.00 | 0.00 | 70 | 1014.2 |
| 20260509103045 | 55 | 95 | 1.0 | 2.0 | 0.00 | 0.00 | 0.00 | 70 | 1014.3 |
| 20260509102542 | 55 | 88 | 1.0 | 2.0 | 0.00 | 0.00 | 0.00 | 70 | 1014.2 |
| 20260509102039 | 55 | 110 | 2.0 | 2.0 | 0.00 | 0.00 | 0.00 | 70 | 1014.2 |
| 20260509101535 | 55 | 104 | 1.0 | 2.0 | 0.00 | 0.00 | 0.00 | 70 | 1014.4 |
| 20260509101032 | 55 | 76 | 1.0 | 2.0 | 0.00 | 0.00 | 0.00 | 70 | 1014.0 |
| 20260509100529 | 55 | 86 | 1.0 | 1.0 | 0.00 | 0.00 | 0.00 | 70 | 1014.0 |
| 20260509100027 | 55 | 89 | 1.0 | 2.0 | 0.00 | 0.00 | 0.00 | 71 | 1014.1 |
| 20260509095523 | 55 | 83 | 0.0 | 1.0 | 0.00 | 0.00 | 0.00 | 71 | 1014.1 |
| 20260509095021 | 54 | 81 | 0.0 | 1.0 | 0.00 | 0.00 | 0.00 | 71 | 1014.1 |
| 20260509094516 | 54 | 79 | 0.0 | 0.0 | 0.00 | 0.00 | 0.00 | 70 | 1014.2 |
| 20260509094014 | 55 | 75 | 0.0 | 0.0 | 0.00 | 0.00 | 0.00 | 70 | 1014.2 |